Location: Passau
(48.5721°N, 13.4363°E)
Time: 10:39:46
(UTC+01:00)

N. Korean satellite - Visible Passes

Search period start: 25 February 2018 00:00
Search period end: 07 March 2018 00:00
Orbit: 459 x 514 km, 97.2° (Epoch: 24 February)

Date Brightness Start Highest point End Pass type
(mag) Time Alt. Az. Time Alt. Az. Time Alt. Az.
25 Feb 9.0 06:17:32 10° NNE 06:20:52 31° E 06:24:13 10° SSE visible
25 Feb 8.8 18:30:55 10° SSW 18:34:00 29° W 18:37:09 10° NNW visible
26 Feb 10.1 05:54:24 10° NE 05:56:58 18° E 05:59:32 10° SE visible
28 Feb 9.9 18:54:00 10° SW 18:56:22 17° W 18:58:47 10° NW visible
01 Mar 9.1 06:16:00 10° NNE 06:19:20 30° E 06:22:40 10° SSE visible
01 Mar 8.8 18:29:17 10° SSW 18:32:25 31° W 18:35:39 10° NNW visible
02 Mar 10.1 05:52:52 10° NE 05:55:24 17° E 05:57:57 10° SE visible
04 Mar 9.9 18:52:16 10° SW 18:54:45 18° W 18:57:16 10° NW visible
05 Mar 8.8 18:27:36 10° SSW 18:30:48 32° W 18:34:05 10° NNW visible
06 Mar 10.1 05:51:18 10° NE 05:53:48 17° E 05:56:19 10° SE visible
